Home > Weather > Leipzig > Past weeks

Flag for Germany Weather for the Past 2 Weeks in Leipzig, Saxony, Germany

Now
34 °F

Clear.


Feels Like: 26 °F
Forecast: 41 / 62 °F
Wind: 10 mph from South

Location: Leipzig-Schkeuditz

Current Time: Apr 29, 2016 at 6:51:59 AM

Latest Report: Apr 29, 2016 at 6:20 AM


Visibility: 10 mi

Pressure: 30.07 "Hg

Humidity: 93%

Dew Point: 32 °F

Location of LeipzigLocation

Historic Weather in Leipzig — Graph

°F

Leipzig Temperature Yesterday

Maximum temperature yesterday: 52 °F (at 5:20 PM)
Minimum temperature yesterday: 36 °F (at 11:20 PM)
Average temperature yesterday: 42 °F

High & Low Weather Summary for the Past Weeks

 TemperatureHumidityPressure
High61 °F (Apr 21, 4:50 PM)100% (Apr 17, 6:50 AM)30.42 "Hg (Apr 17, 6:50 AM)
Low28 °F (Apr 25, 2:20 AM)33% (Apr 22, 4:20 PM)29.47 "Hg (Apr 26, 3:20 AM)
Average45 °F72%29.90 "Hg
* Reported Apr 14 5:20 AM — Apr 29 5:50 AM, Leipzig, Weather by CustomWeather, © 2016

Note: Actual official high and low records may vary slightly from our data, if they occured in-between our weather recording intervals... More about our weather records

Advertising

Leipzig Weather History for the Previous 24 Hours

Scroll right to see more
 ConditionsComfort  
Time TempWeatherWind HumidityBarometerVisibility
5:50 AM
Fri, Apr 29
34 °FClear.10 mph87%30.04 "Hg10 mi
5:20 AM34 °FPassing clouds.12 mph87%30.04 "HgN/A
4:20 AM36 °FClear.9 mph87%30.04 "Hg10 mi
3:50 AM34 °FClear.9 mph87%30.04 "Hg10 mi
3:20 AM34 °FClear.9 mph87%30.04 "Hg10 mi
2:50 AM34 °FClear.9 mph87%30.04 "Hg10 mi
2:20 AM34 °FPassing clouds.8 mph87%30.04 "HgN/A
1:50 AM34 °FClear.9 mph87%30.04 "Hg10 mi
1:20 AM34 °FClear.6 mph87%30.04 "Hg10 mi
12:50 AM36 °FPassing clouds.6 mph81%30.04 "HgN/A
12:20 AM36 °FClear.3 mph81%30.04 "Hg10 mi
11:50 PM
Thu, Apr 28
36 °FPassing clouds.5 mph81%30.04 "HgN/A
11:20 PM36 °FClear.2 mph75%30.04 "Hg10 mi
10:50 PM41 °FClear.3 mph70%30.01 "Hg10 mi
10:20 PM39 °FPassing clouds.1 mph75%30.01 "HgN/A
9:50 PM39 °FPassing clouds.2 mph81%30.01 "HgN/A
9:20 PM39 °FPassing clouds.2 mph75%30.01 "HgN/A
8:50 PM43 °FPassing clouds.5 mph71%30.01 "HgN/A
8:20 PM45 °FPassing clouds.6 mph66%30.01 "HgN/A
7:50 PM45 °FPassing clouds.10 mph66%29.98 "HgN/A
7:20 PM48 °FScattered showers. Passing clouds.9 mph50%29.98 "HgN/A
6:50 PM48 °FScattered showers. Scattered clouds.15 mph54%29.98 "HgN/A
6:20 PM50 °FScattered clouds.14 mph50%29.95 "HgN/A
5:50 PM50 °FScattered clouds.16 mph47%29.95 "HgN/A
5:20 PM52 °FPassing clouds.16 mph50%29.95 "HgN/A
4:50 PM50 °FScattered showers. Scattered clouds.16 mph47%29.95 "HgN/A
4:20 PM50 °FScattered showers. Scattered clouds.13 mph50%29.95 "HgN/A
3:50 PM48 °FSprinkles. Scattered clouds.16 mph62%29.95 "HgN/A
3:20 PM48 °FScattered clouds.14 mph58%29.95 "HgN/A
2:20 PM45 °FSprinkles. Scattered clouds.10 mph76%29.95 "HgN/A
1:50 PM41 °FSprinkles. Partly sunny.10 mph81%29.95 "HgN/A
1:20 PM46 °FSprinkles. Scattered clouds.16 mph66%29.92 "HgN/A
12:50 PM46 °FScattered showers. Scattered clouds.14 mph62%29.95 "HgN/A
12:20 PM45 °FScattered clouds.16 mph71%29.95 "HgN/A
11:50 AM43 °FSnow flurries. Scattered clouds.16 mph87%29.95 "HgN/A
11:20 AM45 °FScattered clouds.14 mph76%29.92 "HgN/A
10:20 AM41 °FLight rain. Partly sunny.18 mph81%29.92 "HgN/A
9:50 AM39 °FLight rain. Partly sunny.14 mph87%29.92 "HgN/A
9:20 AM39 °FPartly sunny.16 mph87%29.92 "HgN/A
7:50 AM41 °FLight rain. Partly sunny.12 mph81%29.89 "HgN/A
7:20 AM39 °FLight rain. Partly sunny.12 mph87%29.86 "HgN/A
6:50 AM39 °FLight rain. Partly sunny.12 mph87%29.86 "HgN/A
Weather by CustomWeather, © 2016

See weather overviewHow to use our weather pages